Ruston, LA

10:46 AM CDT on July 23, 2017 (GMT -0500)
Ruston Regional

Weather History for KRSN - March, 2014

Change the Weather History Date:

Wednesday, March 19, 2014

  Actual Average Record
Temperature  
Mean Temperature 61 °F -  
Max Temperature 70 °F 71 °F 88 °F (1953)
Min Temperature 49 °F 46 °F 29 °F (1965)
Degree Days  
Heating Degree Days 4    
Growing Degree Days 11 (Base 50)    
Moisture  
Dew Point 43 °F    
Average Humidity 58    
Maximum Humidity 94    
Minimum Humidity 24    
Precipitation  
Precipitation 0.00 in - - ()
Sea Level Pressure  
Sea Level Pressure 30.07 in    
Wind  
Wind Speed 7 mph (West)    
Max Wind Speed 13 mph    
Max Gust Speed 22 mph    
Visibility 10 miles    
Events      
Averages and records for this station are not official NWS values.
T = Trace of Precipitation, MM = Missing Value Source: NWS Daily Summary

Daily Weather History Graph

Daily Weather History Graph

Search for Another Location

Airport or City:

Trip Planner

Search our weather history database for the weather conditions in past years. The results will help you decide how hot, cold, wet, or windy it might be!

Date:

Astronomy

Mar. 19, 2014 Rise Set
Actual Time 7:15 AM CDT 7:21 PM CDT
Civil Twilight 6:50 AM CDT 7:45 PM CDT
Nautical Twilight 6:22 AM CDT 8:14 PM CDT
Astronomical Twilight 5:53 AM CDT 8:43 PM CDT
Moon 10:28 PM CDT (3/19) 8:51 AM CDT (3/19)
Length of Visible Light 12h 54m
Length of Day
12h 05m
Waning Gibbous, 91% of the Moon is Illuminated
Mar 19
Waning Gibbous
Mar 23
Last Quarter
Mar 30
New
Apr 7
First Quarter
Apr 15
Full

Hourly Weather History & Observations

Time (CDT) Temp. Dew Point Humidity Pressure Visibility Wind Dir Wind Speed Gust Speed Precip Events Conditions
12:15 AM 57.4 °F 50.2 °F 77% 29.88 in 10.0 mi SSW 11.5 mph 21.9 mph N/A   Clear
12:35 AM 57.2 °F 50.5 °F 78% 29.89 in 10.0 mi SSW 12.7 mph 21.9 mph N/A   Clear
12:55 AM 56.8 °F 50.5 °F 79% 29.93 in 10.0 mi WSW 4.6 mph - N/A   Clear
1:15 AM 57.0 °F 50.9 °F 80% 29.95 in 10.0 mi SW 4.6 mph - N/A   Mostly Cloudy
1:35 AM 57.2 °F 51.1 °F 80% 29.94 in 10.0 mi SSW 9.2 mph - N/A   Overcast
1:55 AM 57.0 °F 51.1 °F 81% 29.95 in 10.0 mi SSW 8.1 mph - N/A   Overcast
2:15 AM 57.0 °F 51.4 °F 82% 29.95 in 10.0 mi SSW 9.2 mph - N/A   Overcast
2:35 AM 56.5 °F 51.8 °F 84% 29.95 in 10.0 mi SSW 10.4 mph - N/A   Scattered Clouds
2:55 AM 56.5 °F 51.8 °F 84% 29.95 in 10.0 mi SSW 9.2 mph - N/A   Clear
3:15 AM 56.5 °F 52.0 °F 85% 29.97 in 10.0 mi SSW 6.9 mph - N/A   Scattered Clouds
3:35 AM 56.8 °F 52.2 °F 84% 29.98 in 10.0 mi SW 5.8 mph - N/A   Overcast
3:55 AM 57.0 °F 52.3 °F 84% 29.98 in 10.0 mi SSW 8.1 mph - N/A   Overcast
4:15 AM 56.8 °F 52.3 °F 85% 29.98 in 10.0 mi SSW 8.1 mph - N/A   Overcast
4:35 AM 56.7 °F 52.7 °F 87% 29.98 in 10.0 mi SSW 9.2 mph - N/A   Overcast
4:55 AM 56.8 °F 52.7 °F 86% 29.98 in 10.0 mi SSW 9.2 mph - N/A   Overcast
5:15 AM 56.8 °F 52.9 °F 87% 29.99 in 10.0 mi SW 9.2 mph - N/A   Mostly Cloudy
5:35 AM 57.0 °F 53.2 °F 87% 29.99 in 10.0 mi SSW 8.1 mph - N/A   Mostly Cloudy
5:55 AM 56.7 °F 53.6 °F 89% 29.99 in 10.0 mi SW 8.1 mph - N/A   Scattered Clouds
6:15 AM 56.8 °F 53.8 °F 89% 30.00 in 10.0 mi SSW 6.9 mph - N/A   Mostly Cloudy
6:35 AM 56.7 °F 54.0 °F 91% 30.00 in 10.0 mi SSW 6.9 mph - N/A   Overcast
6:55 AM 56.7 °F 54.0 °F 91% 30.01 in 10.0 mi SW 6.9 mph - N/A   Mostly Cloudy
7:15 AM 56.5 °F 54.0 °F 91% 30.02 in 10.0 mi SSW 5.8 mph - N/A   Overcast
7:35 AM 56.1 °F 54.0 °F 92% 30.04 in 10.0 mi SW 3.5 mph - N/A   Mostly Cloudy
7:55 AM 56.1 °F 54.3 °F 94% 30.04 in 10.0 mi SW 3.5 mph - N/A   Scattered Clouds
8:15 AM 56.5 °F 54.5 °F 93% 30.04 in 10.0 mi SW 4.6 mph - N/A   Clear
8:35 AM 57.4 °F 54.7 °F 91% 30.05 in 10.0 mi WSW 3.5 mph - N/A   Clear
8:55 AM 58.6 °F 55.0 °F 88% 30.06 in 10.0 mi WSW 6.9 mph - N/A   Scattered Clouds
9:20 AM - - N/A% 30.07 in - West 8.1 mph - N/A   Unknown
9:35 AM 60.6 °F 53.4 °F 77% 30.07 in 10.0 mi WNW 8.1 mph - N/A   Unknown
9:55 AM 61.7 °F 52.7 °F 72% 30.09 in 10.0 mi NW 5.8 mph - N/A   Mostly Cloudy
10:15 AM 62.2 °F 51.8 °F 69% 30.09 in 10.0 mi NNW 8.1 mph - N/A   Scattered Clouds
10:35 AM 63.0 °F 51.1 °F 65% 30.10 in 10.0 mi West 4.6 mph - N/A   Clear
10:55 AM 64.0 °F 49.3 °F 59% 30.11 in 10.0 mi WNW 5.8 mph - N/A   Clear
11:15 AM 64.0 °F 46.8 °F 53% 30.11 in 10.0 mi North 6.9 mph - N/A   Clear
11:35 AM 64.6 °F 44.2 °F 48% 30.12 in 10.0 mi NW 8.1 mph - N/A   Clear
11:55 AM 65.7 °F 40.1 °F 39% 30.12 in 10.0 mi West 6.9 mph - N/A   Clear
12:15 PM 66.2 °F 38.3 °F 36% 30.12 in 10.0 mi NW 6.9 mph - N/A   Clear
12:35 PM 66.7 °F 35.2 °F 31% 30.12 in 10.0 mi NW 6.9 mph - N/A   Clear
12:55 PM 67.3 °F 32.5 °F 28% 30.12 in 10.0 mi NW 3.5 mph - N/A   Clear
1:15 PM 68.7 °F 33.6 °F 27% 30.12 in 10.0 mi North 6.9 mph - N/A   Clear
1:35 PM 69.4 °F 33.6 °F 27% 30.12 in 10.0 mi North 6.9 mph - N/A   Clear
1:55 PM 69.4 °F 33.3 °F 26% 30.11 in 10.0 mi North 4.6 mph - N/A   Clear
2:15 PM 70.3 °F 32.2 °F 24% 30.10 in 10.0 mi WSW 5.8 mph - N/A   Clear
2:35 PM 70.3 °F 33.8 °F 26% 30.10 in 10.0 mi NNW 6.9 mph - N/A   Clear
2:55 PM 70.2 °F 32.5 °F 25% 30.10 in 10.0 mi WNW 8.1 mph - N/A   Clear
3:15 PM 70.3 °F 32.2 °F 24% 30.09 in 10.0 mi WNW 6.9 mph - N/A   Clear
3:35 PM 70.2 °F 31.3 °F 24% 30.09 in 10.0 mi North 8.1 mph - N/A   Clear
3:55 PM 70.5 °F 31.8 °F 24% 30.09 in 10.0 mi NNW 9.2 mph - N/A   Clear
4:15 PM 70.2 °F 31.1 °F 24% 30.10 in 10.0 mi NW 5.8 mph - N/A   Clear
4:35 PM 70.5 °F 31.5 °F 24% 30.10 in 10.0 mi NW 4.6 mph - N/A   Clear
4:55 PM 70.2 °F 31.1 °F 24% 30.09 in 10.0 mi NNW 9.2 mph - N/A   Clear
5:15 PM 69.8 °F 31.3 °F 24% 30.09 in 10.0 mi NNW 4.6 mph - N/A   Clear
5:35 PM 69.3 °F 31.1 °F 24% 30.10 in 10.0 mi NNW 3.5 mph - N/A   Clear
5:55 PM 68.9 °F 32.0 °F 25% 30.10 in 10.0 mi NNW 5.8 mph - N/A   Clear
6:15 PM 68.0 °F 32.2 °F 26% 30.11 in 10.0 mi NNW 5.8 mph - N/A   Clear
6:35 PM 66.7 °F 32.0 °F 27% 30.13 in 10.0 mi NNW 6.9 mph - N/A   Clear
6:55 PM 64.6 °F 32.0 °F 30% 30.13 in 10.0 mi NW 4.6 mph - N/A   Clear
7:15 PM 63.3 °F 33.6 °F 33% 30.14 in 10.0 mi NW 4.6 mph - N/A   Clear
7:35 PM 61.7 °F 35.1 °F 37% 30.15 in 10.0 mi NW 4.6 mph - N/A   Clear
7:55 PM 60.8 °F 35.4 °F 39% 30.15 in 10.0 mi NW 5.8 mph - N/A   Clear
8:15 PM 59.7 °F 35.6 °F 41% 30.15 in 10.0 mi Calm Calm - N/A   Clear
8:35 PM 58.6 °F 36.0 °F 43% 30.15 in 10.0 mi Calm Calm - N/A   Clear
8:55 PM 58.1 °F 36.5 °F 44% 30.16 in 10.0 mi Calm Calm - N/A   Clear
9:15 PM 57.2 °F 36.7 °F 46% 30.18 in 10.0 mi Calm Calm - N/A   Clear
9:35 PM 56.3 °F 37.4 °F 49% 30.18 in 10.0 mi Calm Calm - N/A   Clear
9:55 PM 54.9 °F 37.8 °F 53% 30.18 in 10.0 mi Calm Calm - N/A   Clear
10:15 PM 54.5 °F 37.9 °F 54% 30.17 in 10.0 mi Calm Calm - N/A   Clear
10:35 PM 53.6 °F 38.3 °F 56% 30.17 in 10.0 mi Calm Calm - N/A   Clear
10:55 PM 53.1 °F 38.5 °F 58% 30.18 in 10.0 mi Calm Calm - N/A   Clear
11:15 PM 52.7 °F 38.7 °F 59% 30.18 in 10.0 mi Calm Calm - N/A   Clear
11:35 PM 52.0 °F 38.8 °F 61% 30.19 in 10.0 mi Calm Calm - N/A   Clear
11:55 PM 49.6 °F 39.6 °F 68% 30.19 in 10.0 mi Calm Calm - N/A   Clear